Location: Unspecified
(0.0000°N, 0.0000°E)
Time: 20:36:37
(UTC+00:00)

Explorer 11/Cluster Stage 4 - All Passes

Search period start: 23 October 2014 00:00
Search period end: 02 November 2014 00:00
Orbit: 468 x 1281 km, 28.8° (Epoch: 22 October)

Date Brightness Start Highest point End Pass type
(mag) Time Alt. Az. Time Alt. Az. Time Alt. Az.
23 Oct - 03:36:12 10° NNW 03:42:26 23° NNE 03:48:35 10° ENE visible
23 Oct - 05:24:21 10° NW 05:32:38 64° NNE 05:40:03 10° ESE daylight
23 Oct - 07:14:50 10° W 07:22:12 41° SSW 07:28:29 10° SE daylight
23 Oct - 09:10:36 10° SW 09:11:40 10° SSW 09:12:42 10° SSW daylight
23 Oct - 16:30:35 10° SSW 16:33:08 18° SSE 16:35:48 10° ESE daylight
23 Oct - 18:17:47 10° WSW 18:21:31 54° NNW 18:25:55 10° NE visible
23 Oct - 20:09:00 10° NW 20:10:45 12° NNW 20:12:37 10° N visible
24 Oct - 03:28:36 10° NNW 03:35:20 27° NNE 03:42:03 10° E visible
24 Oct - 05:17:00 10° NW 05:25:24 78° NNE 05:33:04 10° ESE visible
24 Oct - 07:07:54 10° W 07:15:01 34° SSW 07:21:13 10° SSE daylight
24 Oct - 16:23:11 10° SSW 16:26:11 24° SSE 16:29:19 10° E daylight
24 Oct - 18:11:06 10° W 18:14:36 37° NNW 18:18:36 10° NE visible
25 Oct - 01:35:41 10° N 01:37:39 11° NNE 01:39:40 10° NE visible
25 Oct - 03:21:04 10° NNW 03:28:11 33° NNE 03:35:23 10° E visible
25 Oct - 05:09:42 10° WNW 05:18:09 88° SSW 05:25:59 10° ESE visible
25 Oct - 07:01:03 10° W 07:07:49 29° SSW 07:13:52 10° SSE daylight
25 Oct - 16:15:54 10° SW 16:19:14 34° SSE 16:22:39 10° E daylight
25 Oct - 18:04:33 10° W 18:07:41 25° NNW 18:11:10 10° NNE visible
26 Oct - 01:27:28 10° N 01:30:41 13° NNE 01:34:02 10° NE visible
26 Oct - 03:13:35 10° NW 03:20:58 39° NNE 03:28:34 10° E visible
26 Oct - 05:02:29 10° WNW 05:10:52 75° SSW 05:18:48 10° SE visible
26 Oct - 06:54:18 10° W 07:00:39 25° SSW 07:06:26 10° SSE daylight
26 Oct - 16:08:43 10° SW 16:12:16 51° SSE 16:15:50 10° ENE daylight
26 Oct - 17:58:10 10° WNW 18:00:46 18° NNW 18:03:34 10° NNE daylight
27 Oct - 01:19:36 10° N 01:23:39 15° NNE 01:27:56 10° ENE visible
27 Oct - 03:06:09 10° NW 03:13:43 46° NNE 03:21:38 10° E visible
27 Oct - 04:55:19 10° WNW 05:03:33 63° SSW 05:11:31 10° SE visible
27 Oct - 06:47:40 10° WSW 06:53:29 21° SSW 06:58:54 10° SSE daylight
27 Oct - 14:15:22 10° S 14:16:36 11° SSE 14:17:47 10° SE daylight
27 Oct - 16:01:36 10° WSW 16:05:18 79° SSE 16:08:55 10° ENE daylight
27 Oct - 17:52:08 10° NW 17:53:51 13° NNW 17:55:38 10° N daylight
28 Oct - 01:11:54 10° NNW 01:16:33 18° NNE 01:21:34 10° ENE visible
28 Oct - 02:58:47 10° NW 03:06:25 55° NNE 03:14:35 10° ESE visible
28 Oct - 04:48:14 10° WNW 04:56:15 52° SSW 05:04:09 10° SE visible
28 Oct - 06:41:10 10° WSW 06:46:21 18° SSW 06:51:16 10° SSE daylight
28 Oct - 14:07:04 10° SSW 14:09:41 16° SSE 14:12:05 10° ESE daylight
28 Oct - 15:54:34 10° WSW 15:58:18 68° NNW 16:01:53 10° NE daylight
29 Oct - 01:04:18 10° NNW 01:09:23 21° NNE 01:15:01 10° ENE visible
29 Oct - 02:51:28 10° NW 02:59:05 66° NNE 03:07:25 10° ESE visible
29 Oct - 04:41:14 10° W 04:48:57 44° SSW 04:56:42 10° SE visible
29 Oct - 06:34:49 10° WSW 06:39:15 15° SSW 06:43:30 10° S daylight
29 Oct - 13:59:17 10° SSW 14:02:44 22° SSE 14:05:48 10° E daylight
29 Oct - 15:47:36 10° WSW 15:51:17 45° NNW 15:54:44 10° NE daylight
30 Oct - 00:56:46 10° NNW 01:02:11 24° NNE 01:08:18 10° E visible
30 Oct - 02:44:12 10° NW 02:51:44 79° NNE 03:00:09 10° ESE visible
30 Oct - 04:34:19 10° W 04:41:40 37° SSW 04:49:09 10° SE visible
30 Oct - 06:28:42 10° SW 06:32:11 13° SSW 06:35:34 10° S daylight
30 Oct - 13:51:40 10° SW 13:55:46 31° SSE 13:59:16 10° E daylight
30 Oct - 15:40:43 10° W 15:44:14 31° NNW 15:47:29 10° NNE daylight
31 Oct - 00:49:18 10° NNW 00:54:55 29° NNE 01:01:26 10° E night (unlit)
31 Oct - 02:37:01 10° WNW 02:44:24 87° SSW 02:52:47 10° ESE visible
31 Oct - 04:27:30 10° W 04:34:24 31° SSW 04:41:32 10° SSE visible
31 Oct - 06:23:00 10° SW 06:25:08 11° SSW 06:27:15 10° S daylight
31 Oct - 11:57:40 10° S 11:59:18 11° SSE 12:00:51 10° SE daylight
31 Oct - 13:44:08 10° SW 13:48:45 44° SSE 13:52:34 10° ENE daylight
31 Oct - 15:33:57 10° W 15:37:10 23° NNW 15:40:07 10° NNE daylight
01 Nov - 00:41:54 10° NNW 00:47:38 34° NNE 00:54:26 10° E night (unlit)
01 Nov - 02:29:53 10° WNW 02:37:03 73° SSW 02:45:20 10° SE visible
01 Nov - 04:20:48 10° WSW 04:27:10 26° SSW 04:33:49 10° SSE visible
01 Nov - 11:49:02 10° SSW 11:52:21 15° SSE 11:55:17 10° ESE daylight
01 Nov - 13:36:42 10° SW 13:41:41 64° SSE 13:45:43 10° ENE daylight
01 Nov - 15:27:20 10° WNW 15:30:04 17° NNW 15:32:35 10° N daylight
